Location: Unspecified
(0.0000°N, 0.0000°E)
Time: 23:17:06
(UTC+00:00)

OV3-3 - Visible Passes

Search period start: 15 February 2019 00:00
Search period end: 25 February 2019 00:00
Orbit: 341 x 2240 km, 81.4° (Epoch: 14 February)

Date Brightness Start Highest point End Pass type
(mag) Time Alt. Az. Time Alt. Az. Time Alt. Az.
15 Feb 9.4 03:49:48 10° NNE 03:56:23 27° ENE 04:01:04 10° SE visible
15 Feb 8.7 05:42:36 10° NW 05:48:20 22° W 05:52:35 10° SW visible
16 Feb 8.8 03:58:15 10° NNE 04:05:31 38° E 04:10:22 10° SSE visible
17 Feb 8.0 04:06:57 10° N 04:14:34 55° E 04:19:25 10° SSE visible
18 Feb 7.3 04:15:54 10° N 04:23:30 81° E 04:28:15 10° S visible
19 Feb 7.1 04:30:21 44° NNW 04:32:18 68° W 04:36:53 10° S visible
20 Feb 8.0 04:42:58 29° SW 04:42:58 29° SW 04:45:17 10° SSW visible
